Flag for Poland Weather past 2 weeks in Szczecin, Poland

Now
41 °F

Light rain. Partly cloudy.


Feels Like: 35 °F
Forecast: 41 / 50 °F
Wind: 9 mph from Southwest

Location: Szczecin Airport

Current Time: Dec 21, 2014 at 5:48:09 PM

Latest Report: Dec 21, 2014 at 5:30 PM


Visibility: N/A

Pressure: 30.04 "Hg

Humidity: 87%

Dew point: 37 °F

Location of SzczecinLocation

Historic Weather in Szczecin — Graph

°F

Szczecin temperature yesterday

Maximum temperature yesterday: 45 °F (at 11:30 AM)
Minimum temperature yesterday: 37 °F (at 5:30 AM)
Average temperature yesterday: 40 °F

Past Weeks' High & Low Weather Summary

 TemperatureHumidityPressure
High54 °F (Dec 19, 5:30 AM)100% (Dec 6, 6:00 PM)30.36 "Hg (Dec 6, 6:00 PM)
Low28 °F (Dec 14, 6:30 AM)71% (Dec 12, 8:30 PM)29.27 "Hg (Dec 12, 7:30 PM)
Average39 °F92%29.83 "Hg
* Reported Dec 6 4:00 PM — Dec 21 4:30 PM, Szczecin, Weather by CustomWeather, © 2014

Note: Actual official high and low records may vary slightly from our data, if they occured in-between our weather recording intervals... More about our weather records

Advertising

Szczecin weather history for previous 24 hours

 ConditionsComfort  
Time TempWeatherWind HumidityBarometerVisibility
4:30 PM
Dec 21
43 °FPartly cloudy.9 mph81%30.04 "HgN/A
4:00 PM43 °FPartly cloudy.12 mph81%30.07 "HgN/A
3:30 PM43 °FScattered clouds.15 mph81%30.07 "HgN/A
3:00 PM43 °FPartly sunny.13 mph81%30.07 "HgN/A
2:30 PM43 °FPartly sunny.14 mph81%30.07 "HgN/A
2:00 PM43 °FPartly sunny.15 mph81%30.09 "HgN/A
1:30 PM43 °FPartly sunny.14 mph81%30.09 "HgN/A
1:00 PM43 °FBroken clouds.13 mph81%30.09 "HgN/A
12:30 PM43 °FScattered clouds.13 mph81%30.09 "HgN/A
12:00 PM43 °FPartly sunny.14 mph81%30.09 "HgN/A
11:30 AM43 °FPartly sunny.15 mph81%30.07 "HgN/A
11:00 AM43 °FBroken clouds.15 mph81%30.07 "HgN/A
10:30 AM41 °FBroken clouds.15 mph87%30.09 "HgN/A
10:00 AM41 °FBroken clouds.16 mph87%30.07 "HgN/A
9:30 AM41 °FBroken clouds.15 mph87%30.07 "HgN/A
9:00 AM39 °FPartly sunny.9 mph87%30.07 "HgN/A
8:30 AM37 °FScattered clouds.9 mph93%30.04 "HgN/A
8:00 AM37 °FPassing clouds.8 mph87%30.04 "HgN/A
7:30 AM37 °FPassing clouds.8 mph93%30.04 "HgN/A
7:00 AM37 °FPassing clouds.10 mph93%30.01 "HgN/A
6:30 AM37 °FPassing clouds.7 mph93%30.01 "HgN/A
6:00 AM37 °FClear.12 mph93%29.98 "Hg10 mi
5:30 AM37 °FClear.9 mph93%29.98 "Hg10 mi
5:00 AM37 °FClear.10 mph87%29.95 "Hg10 mi
4:30 AM39 °FPassing clouds.10 mph87%29.95 "HgN/A
4:00 AM39 °FPassing clouds.12 mph87%29.92 "HgN/A
3:30 AM39 °FPassing clouds.12 mph87%29.92 "HgN/A
3:00 AM39 °FPassing clouds.12 mph87%29.89 "HgN/A
2:30 AM39 °FPassing clouds.13 mph87%29.86 "HgN/A
2:00 AM41 °FPassing clouds.16 mph81%29.86 "HgN/A
1:30 AM41 °FPassing clouds.15 mph81%29.83 "HgN/A
1:00 AM41 °FPassing clouds.16 mph81%29.83 "HgN/A
12:30 AM41 °FPassing clouds.15 mph81%29.80 "HgN/A
12:00 AM41 °FPassing clouds.14 mph76%29.77 "HgN/A
11:30 PM
Dec 20
41 °FPassing clouds.18 mph76%29.74 "HgN/A
11:00 PM41 °FPassing clouds.22 mph76%29.74 "HgN/A
10:30 PM39 °FPartly cloudy.17 mph87%29.71 "HgN/A
10:00 PM41 °FSprinkles. Partly cloudy.21 mph81%29.68 "HgN/A
9:30 PM39 °FPartly cloudy.18 mph87%29.68 "HgN/A
9:00 PM39 °FPartly cloudy.17 mph87%29.65 "HgN/A
8:30 PM39 °FPassing clouds.16 mph87%29.65 "HgN/A
8:00 PM39 °FPassing clouds.18 mph87%29.62 "HgN/A
7:30 PM39 °FPassing clouds.16 mph87%29.59 "HgN/A
7:00 PM39 °FPassing clouds.14 mph81%29.59 "HgN/A
6:30 PM37 °FPassing clouds.14 mph87%29.62 "HgN/A
6:00 PM37 °FPartly cloudy.13 mph87%29.62 "HgN/A
5:30 PM39 °FPartly cloudy.12 mph87%29.62 "HgN/A
5:00 PM39 °FPassing clouds.12 mph81%29.62 "HgN/A
Weather by CustomWeather, © 2014

See weather overviewHow to use our weather pages